SHT21B EGJB-EGLL

Flight info

Callsign SHT21B
Flight time 0h 35m
Altitude 19000
Route N0398F190 DCT ORIST L982 ROXOG ROXOG1H
Aircraft A319/M-SDE3FGIJ1KRWXY/LB1

Departure

Time 2026-05-05 12:45
Airport Guernsey Airport (EGJB)

Arrival

Time 2026-05-05 13:21
Airport London Heathrow Airport (EGLL)
Time Latitude Longitude Altitude Speed Heading
2026-05-05 12:44 49.43427 -2.61354 316 ft 10 kts 338°
2026-05-05 12:44 49.43467 -2.61323 316 ft 1 kts 87°
2026-05-05 12:44 49.43467 -2.61321 316 ft 3 kts 87°
2026-05-05 12:45 49.43483 -2.60748 310 ft 106 kts 88°
2026-05-05 12:45 49.43524 -2.59303 764 ft 146 kts 83°
2026-05-05 12:45 49.43565 -2.57697 1781 ft 158 kts 83°
2026-05-05 12:45 49.43621 -2.55899 2439 ft 180 kts 82°
2026-05-05 12:46 49.43686 -2.53832 2958 ft 209 kts 83°
2026-05-05 12:46 49.43759 -2.51564 4133 ft 210 kts 81°
2026-05-05 12:46 49.44283 -2.49511 5411 ft 210 kts 47°
2026-05-05 12:46 49.45523 -2.48365 6645 ft 214 kts 16°
2026-05-05 12:47 49.46975 -2.47810 7908 ft 217 kts 14°
2026-05-05 12:47 49.48469 -2.47263 9090 ft 229 kts 14°
2026-05-05 12:47 49.50101 -2.46661 9935 ft 254 kts 14°
2026-05-05 12:47 49.51874 -2.45997 10728 ft 274 kts 14°
2026-05-05 12:48 49.53753 -2.45284 11819 ft 281 kts 14°
2026-05-05 12:48 49.55669 -2.44555 12967 ft 286 kts 14°
2026-05-05 12:48 49.57622 -2.43814 14074 ft 292 kts 14°
2026-05-05 12:48 49.59612 -2.43055 15093 ft 297 kts 15°
2026-05-05 12:49 49.61640 -2.42272 16103 ft 303 kts 15°
2026-05-05 12:49 49.63714 -2.41470 17067 ft 310 kts 15°
2026-05-05 12:49 49.65833 -2.40655 18052 ft 316 kts 16°
2026-05-05 12:49 49.67944 -2.39703 18676 ft 322 kts 22°
2026-05-05 12:50 49.69958 -2.38171 18894 ft 323 kts 33°
2026-05-05 12:50 49.71802 -2.35996 18968 ft 348 kts 44°
2026-05-05 12:50 49.73464 -2.33162 18973 ft 362 kts 51°
2026-05-05 12:50 49.75098 -2.30160 18975 ft 365 kts 51°
2026-05-05 12:51 49.76740 -2.27161 18976 ft 366 kts 50°
2026-05-05 12:51 49.77832 -2.25173 18975 ft 366 kts 50°
2026-05-05 12:51 49.79490 -2.22159 18975 ft 366 kts 50°
2026-05-05 12:51 49.81681 -2.18171 18976 ft 367 kts 50°
2026-05-05 12:52 49.82797 -2.16136 18978 ft 366 kts 50°
2026-05-05 12:52 49.84443 -2.13133 18976 ft 367 kts 50°
2026-05-05 12:52 49.86095 -2.10113 18976 ft 366 kts 51°
2026-05-05 12:52 49.87741 -2.07102 18977 ft 366 kts 50°
2026-05-05 12:53 49.89388 -2.04085 18979 ft 366 kts 51°
2026-05-05 12:53 49.91010 -2.01106 18980 ft 366 kts 50°
2026-05-05 12:53 49.92655 -1.98076 18980 ft 366 kts 51°
2026-05-05 12:53 49.94303 -1.95038 18982 ft 366 kts 51°
2026-05-05 12:54 49.97588 -1.88965 18970 ft 367 kts 50°
2026-05-05 12:54 49.99271 -1.86059 18965 ft 367 kts 44°
2026-05-05 12:54 50.01282 -1.83606 18967 ft 368 kts 33°
2026-05-05 12:55 50.03545 -1.81689 18961 ft 369 kts 27°
2026-05-05 12:55 50.05835 -1.79880 18967 ft 369 kts 27°
2026-05-05 12:55 50.08124 -1.78074 18971 ft 369 kts 27°
2026-05-05 12:55 50.10412 -1.76266 18972 ft 369 kts 27°
2026-05-05 12:56 50.12636 -1.74274 18972 ft 368 kts 35°
2026-05-05 12:56 50.14612 -1.71812 18971 ft 368 kts 40°
2026-05-05 12:56 50.16575 -1.69257 18974 ft 367 kts 40°
2026-05-05 12:56 50.18543 -1.66711 18969 ft 368 kts 40°
2026-05-05 12:57 50.20517 -1.64159 18966 ft 368 kts 40°
2026-05-05 12:57 50.22491 -1.61601 18963 ft 368 kts 40°
2026-05-05 12:57 50.24462 -1.59044 18962 ft 368 kts 40°
2026-05-05 12:57 50.26539 -1.56781 18961 ft 369 kts 30°
2026-05-05 12:58 50.28881 -1.55144 18958 ft 370 kts 19°
2026-05-05 12:58 50.31347 -1.53943 18960 ft 370 kts 18°
2026-05-05 12:58 50.33816 -1.52746 18960 ft 370 kts 18°
2026-05-05 12:58 50.36277 -1.51540 18962 ft 370 kts 18°
2026-05-05 12:59 50.38701 -1.50342 18962 ft 370 kts 18°
2026-05-05 12:59 50.41160 -1.49123 18954 ft 370 kts 18°
2026-05-05 12:59 50.43620 -1.47905 18955 ft 370 kts 18°
2026-05-05 13:00 50.48542 -1.45483 18956 ft 370 kts 18°
2026-05-05 13:00 50.51006 -1.44273 18953 ft 370 kts 18°
2026-05-05 13:01 50.58003 -1.39294 18956 ft 370 kts 29°
2026-05-05 13:01 50.60255 -1.37353 18954 ft 370 kts 29°
2026-05-05 13:01 50.62514 -1.35399 18955 ft 370 kts 30°
2026-05-05 13:01 50.64747 -1.33470 18955 ft 369 kts 29°
2026-05-05 13:02 50.67008 -1.31525 18948 ft 370 kts 29°
2026-05-05 13:02 50.69284 -1.29570 18946 ft 371 kts 29°
2026-05-05 13:02 50.71557 -1.27613 18946 ft 372 kts 29°
2026-05-05 13:02 50.73828 -1.25652 18947 ft 372 kts 29°
2026-05-05 13:03 50.76099 -1.23686 18949 ft 372 kts 29°
2026-05-05 13:03 50.78308 -1.21631 18951 ft 373 kts 32°
2026-05-05 13:03 50.80442 -1.19479 18937 ft 372 kts 33°
2026-05-05 13:03 50.82600 -1.17218 18202 ft 373 kts 34°
2026-05-05 13:04 50.84748 -1.14928 17484 ft 369 kts 34°
2026-05-05 13:04 50.86860 -1.12678 16893 ft 361 kts 34°
2026-05-05 13:04 50.88928 -1.10493 16301 ft 353 kts 34°
2026-05-05 13:04 50.90966 -1.08360 15723 ft 346 kts 33°
2026-05-05 13:05 50.92965 -1.06285 15152 ft 340 kts 33°
2026-05-05 13:05 50.94911 -1.04272 14598 ft 334 kts 33°
2026-05-05 13:05 50.96838 -1.02281 14043 ft 329 kts 33°
2026-05-05 13:05 50.98743 -1.00308 13467 ft 324 kts 33°
2026-05-05 13:06 51.00553 -0.98221 13034 ft 320 kts 41°
2026-05-05 13:06 51.02095 -0.95663 12782 ft 320 kts 48°
2026-05-05 13:06 51.03573 -0.93027 12520 ft 320 kts 48°
2026-05-05 13:06 51.05014 -0.90470 12270 ft 320 kts 48°
2026-05-05 13:07 51.06499 -0.87837 12012 ft 318 kts 48°
2026-05-05 13:07 51.07978 -0.85210 11758 ft 318 kts 48°
2026-05-05 13:07 51.09457 -0.82574 11505 ft 317 kts 48°
2026-05-05 13:07 51.10907 -0.79986 11258 ft 317 kts 48°
2026-05-05 13:08 51.12294 -0.77507 11019 ft 307 kts 48°
2026-05-05 13:08 51.13688 -0.75010 10771 ft 296 kts 48°
2026-05-05 13:08 51.15037 -0.72593 10530 ft 289 kts 48°
2026-05-05 13:08 51.16366 -0.70209 10295 ft 287 kts 48°
2026-05-05 13:09 51.17681 -0.67846 10066 ft 282 kts 48°
2026-05-05 13:09 51.18969 -0.65533 9873 ft 276 kts 48°
2026-05-05 13:09 51.20245 -0.63243 9662 ft 274 kts 48°
2026-05-05 13:09 51.21495 -0.61001 9443 ft 273 kts 48°
2026-05-05 13:10 51.22753 -0.58735 9238 ft 272 kts 49°
2026-05-05 13:10 51.24002 -0.56479 9052 ft 270 kts 49°
2026-05-05 13:10 51.25248 -0.54226 8964 ft 270 kts 49°
2026-05-05 13:10 51.26501 -0.51985 8967 ft 270 kts 46°
2026-05-05 13:11 51.28060 -0.50347 8826 ft 269 kts 18°
2026-05-05 13:11 51.29847 -0.50224 8534 ft 258 kts 347°
2026-05-05 13:11 51.31402 -0.51503 8199 ft 251 kts 318°
2026-05-05 13:11 51.32371 -0.53782 7868 ft 248 kts 291°
2026-05-05 13:12 51.32917 -0.56401 7538 ft 248 kts 289°
2026-05-05 13:12 51.33450 -0.59029 7217 ft 248 kts 288°
2026-05-05 13:12 51.33980 -0.61645 6884 ft 246 kts 289°
2026-05-05 13:12 51.34508 -0.64237 6570 ft 245 kts 289°
2026-05-05 13:13 51.35032 -0.66829 6245 ft 243 kts 288°
2026-05-05 13:13 51.35540 -0.69401 5910 ft 242 kts 288°
2026-05-05 13:13 51.36033 -0.71929 5576 ft 241 kts 288°
2026-05-05 13:13 51.36529 -0.74474 5242 ft 238 kts 289°
2026-05-05 13:14 51.37232 -0.76796 4902 ft 227 kts 312°
2026-05-05 13:14 51.38444 -0.78266 4568 ft 214 kts 339°
2026-05-05 13:14 51.39853 -0.78713 4229 ft 202 kts
2026-05-05 13:14 51.41241 -0.78779 3893 ft 196 kts
2026-05-05 13:15 51.42579 -0.78850 3561 ft 191 kts 360°
2026-05-05 13:15 51.43897 -0.78922 3234 ft 188 kts 359°
2026-05-05 13:15 51.45184 -0.78955 3016 ft 179 kts
2026-05-05 13:15 51.46299 -0.78377 3001 ft 161 kts 32°
2026-05-05 13:16 51.47098 -0.77208 3008 ft 157 kts 52°
2026-05-05 13:16 51.47551 -0.75602 3008 ft 160 kts 76°
2026-05-05 13:16 51.47617 -0.73823 3010 ft 163 kts 87°
2026-05-05 13:16 51.47628 -0.72000 2926 ft 163 kts 86°
2026-05-05 13:17 51.47638 -0.70211 2800 ft 163 kts 86°
2026-05-05 13:17 51.47649 -0.68392 2560 ft 162 kts 86°
2026-05-05 13:17 51.47659 -0.66598 2338 ft 160 kts 86°
2026-05-05 13:17 51.47670 -0.64803 2127 ft 161 kts 87°
2026-05-05 13:18 51.47679 -0.63012 1911 ft 160 kts 86°
2026-05-05 13:18 51.47688 -0.61230 1697 ft 159 kts 86°
2026-05-05 13:18 51.47697 -0.59479 1494 ft 157 kts 86°
2026-05-05 13:18 51.47706 -0.57710 1273 ft 157 kts 86°
2026-05-05 13:19 51.47714 -0.56038 1061 ft 139 kts 86°
2026-05-05 13:19 51.47720 -0.54618 874 ft 121 kts 85°
2026-05-05 13:19 51.47726 -0.53300 729 ft 114 kts 85°
2026-05-05 13:19 51.47733 -0.52044 540 ft 110 kts 86°
2026-05-05 13:20 51.47746 -0.50833 392 ft 108 kts 86°
2026-05-05 13:20 51.47750 -0.49619 260 ft 109 kts 86°
2026-05-05 13:20 51.47753 -0.48402 127 ft 109 kts 88°
2026-05-05 13:20 51.47756 -0.47294 86 ft 84 kts 90°
2026-05-05 13:21 51.47760 -0.46553 90 ft 58 kts 89°
2026-05-05 13:21 51.47748 -0.46212 88 ft 18 kts 118°
2026-05-05 13:21 51.47641 -0.46076 87 ft 10 kts 150°
2026-05-05 13:21 51.47593 -0.46151 86 ft 14 kts 270°
2026-05-05 13:22 51.47594 -0.46340 87 ft 20 kts 270°
2026-05-05 13:22 51.47593 -0.46586 87 ft 23 kts 268°
2026-05-05 13:22 51.47591 -0.46827 87 ft 19 kts 266°
2026-05-05 13:22 51.47581 -0.47078 88 ft 25 kts 270°
2026-05-05 13:23 51.47582 -0.47397 86 ft 28 kts 270°
2026-05-05 13:23 51.47581 -0.47660 88 ft 24 kts 269°
2026-05-05 13:23 51.47580 -0.47902 86 ft 23 kts 269°
2026-05-05 13:23 51.47578 -0.48194 90 ft 26 kts 270°
2026-05-05 13:24 51.47577 -0.48411 90 ft 12 kts 264°
2026-05-05 13:24 51.47500 -0.48476 86 ft 13 kts 180°
2026-05-05 13:24 51.47412 -0.48476 86 ft 5 kts 181°
2026-05-05 13:24 51.47399 -0.48517 90 ft 7 kts 266°
2026-05-05 13:25 51.47400 -0.48571 86 ft 2 kts 270°
2026-05-05 13:25 51.47399 -0.48589 86 ft 0 kts 270°